Year,Month,Day,Hour,Minute,Value (Times are PST for temperature in C)
2013,06,05,00,00,14.40
2013,06,05,00,01,14.30
2013,06,05,00,02,14.30
2013,06,05,00,03,14.30
2013,06,05,00,04,14.30
2013,06,05,00,05,14.30
2013,06,05,00,06,14.20
2013,06,05,00,07,14.20
2013,06,05,00,08,14.20
2013,06,05,00,09,14.20
2013,06,05,00,10,14.20
2013,06,05,00,11,14.20
2013,06,05,00,12,14.20
2013,06,05,00,13,14.20
2013,06,05,00,14,14.10
2013,06,05,00,15,14.10
2013,06,05,00,16,14.10
2013,06,05,00,17,14.10
2013,06,05,00,18,14.10
2013,06,05,00,19,14.10
2013,06,05,00,20,14.10
2013,06,05,00,21,14.10
2013,06,05,00,22,14.10
2013,06,05,00,23,14.10
2013,06,05,00,24,14.10
2013,06,05,00,25,14.10
2013,06,05,00,26,14.10
2013,06,05,00,27,14.10
2013,06,05,00,28,14.10
2013,06,05,00,29,14.10
2013,06,05,00,30,14.10
2013,06,05,00,31,14.10
2013,06,05,00,32,14.10
2013,06,05,00,33,14.10
2013,06,05,00,34,14.00
2013,06,05,00,35,14.00
2013,06,05,00,36,14.00
2013,06,05,00,37,14.00
2013,06,05,00,38,14.00
2013,06,05,00,39,14.00
2013,06,05,00,40,14.00
2013,06,05,00,41,14.00
2013,06,05,00,42,14.00
2013,06,05,00,43,14.00
2013,06,05,00,44,14.00
2013,06,05,00,45,14.00
2013,06,05,00,46,13.90
2013,06,05,00,47,13.90
2013,06,05,00,48,13.90
2013,06,05,00,49,13.90
2013,06,05,00,50,13.90
2013,06,05,00,51,13.90
2013,06,05,00,52,13.90
2013,06,05,00,53,13.90
2013,06,05,00,54,13.90
2013,06,05,00,55,13.90
2013,06,05,00,56,13.90
2013,06,05,00,57,13.90
2013,06,05,00,58,14.00
2013,06,05,00,59,14.00
2013,06,05,01,00,14.00
2013,06,05,01,01,14.00
2013,06,05,01,02,14.00
2013,06,05,01,03,14.00
2013,06,05,01,04,14.00
2013,06,05,01,05,13.90
2013,06,05,01,06,13.90
2013,06,05,01,07,13.90
2013,06,05,01,08,13.90
2013,06,05,01,09,13.90
2013,06,05,01,10,13.90
2013,06,05,01,11,13.90
2013,06,05,01,12,13.90
2013,06,05,01,13,13.90
2013,06,05,01,14,13.90
2013,06,05,01,15,13.90
2013,06,05,01,16,13.90
2013,06,05,01,17,13.90
2013,06,05,01,18,13.90
2013,06,05,01,19,13.90
2013,06,05,01,20,13.90
2013,06,05,01,21,13.90
2013,06,05,01,22,13.90
2013,06,05,01,23,13.90
2013,06,05,01,24,13.90
2013,06,05,01,25,13.90
2013,06,05,01,26,13.90
2013,06,05,01,27,13.90
2013,06,05,01,28,13.90
2013,06,05,01,29,13.90
2013,06,05,01,30,13.90
2013,06,05,01,31,13.80
2013,06,05,01,32,13.80
2013,06,05,01,33,13.80
2013,06,05,01,34,13.80
2013,06,05,01,35,13.80
2013,06,05,01,36,13.80
2013,06,05,01,37,13.80
2013,06,05,01,38,13.80
2013,06,05,01,39,13.80
2013,06,05,01,40,13.80
2013,06,05,01,41,13.80
2013,06,05,01,42,13.80
2013,06,05,01,43,13.80
2013,06,05,01,44,13.80
2013,06,05,01,45,13.80
2013,06,05,01,46,13.80
2013,06,05,01,47,13.80
2013,06,05,01,48,13.80
2013,06,05,01,49,13.80
2013,06,05,01,50,13.80
2013,06,05,01,51,13.80
2013,06,05,01,52,13.80
2013,06,05,01,53,13.80
2013,06,05,01,54,13.80
2013,06,05,01,55,13.80
2013,06,05,01,56,13.80
2013,06,05,01,57,13.80
2013,06,05,01,58,13.80
2013,06,05,01,59,13.80
2013,06,05,02,00,13.80
2013,06,05,02,01,13.80
2013,06,05,02,02,13.80
2013,06,05,02,03,13.80
2013,06,05,02,04,13.80
2013,06,05,02,05,13.80
2013,06,05,02,06,13.80
2013,06,05,02,07,13.80
2013,06,05,02,08,13.80
2013,06,05,02,09,13.80
2013,06,05,02,10,13.80
2013,06,05,02,11,13.80
2013,06,05,02,12,13.80
2013,06,05,02,13,13.80
2013,06,05,02,14,13.80
2013,06,05,02,15,13.80
2013,06,05,02,16,13.80
2013,06,05,02,17,13.80
2013,06,05,02,18,13.80
2013,06,05,02,19,13.80
2013,06,05,02,20,13.80
2013,06,05,02,21,13.80
2013,06,05,02,22,13.80
2013,06,05,02,23,13.80
2013,06,05,02,24,13.80
2013,06,05,02,25,13.90
2013,06,05,02,26,13.90
2013,06,05,02,27,13.90
2013,06,05,02,28,13.90
2013,06,05,02,29,13.90
2013,06,05,02,30,13.90
2013,06,05,02,31,13.90
2013,06,05,02,32,13.90
2013,06,05,02,33,13.90
2013,06,05,02,34,13.90
2013,06,05,02,35,13.90
2013,06,05,02,36,13.90
2013,06,05,02,37,13.90
2013,06,05,02,38,13.80
2013,06,05,02,39,13.80
2013,06,05,02,40,13.80
2013,06,05,02,41,13.80
2013,06,05,02,42,13.80
2013,06,05,02,43,13.80
2013,06,05,02,44,13.80
2013,06,05,02,45,13.80
2013,06,05,02,46,13.80
2013,06,05,02,47,13.80
2013,06,05,02,48,13.80
2013,06,05,02,49,13.80
2013,06,05,02,50,13.80
2013,06,05,02,51,13.80
2013,06,05,02,52,13.80
2013,06,05,02,53,13.80
2013,06,05,02,54,13.70
2013,06,05,02,55,13.70
2013,06,05,02,56,13.70
2013,06,05,02,57,13.70
2013,06,05,02,58,13.70
2013,06,05,02,59,13.70
2013,06,05,03,00,13.70
2013,06,05,03,01,13.70
2013,06,05,03,02,13.70
2013,06,05,03,03,13.60
2013,06,05,03,04,13.60
2013,06,05,03,05,13.60
2013,06,05,03,06,13.60
2013,06,05,03,07,13.60
2013,06,05,03,08,13.60
2013,06,05,03,09,13.50
2013,06,05,03,10,13.50
2013,06,05,03,11,13.50
2013,06,05,03,12,13.50
2013,06,05,03,13,13.50
2013,06,05,03,14,13.50
2013,06,05,03,15,13.40
2013,06,05,03,16,13.40
2013,06,05,03,17,13.40
2013,06,05,03,18,13.40
2013,06,05,03,19,13.40
2013,06,05,03,20,13.40
2013,06,05,03,21,13.40
2013,06,05,03,22,13.40
2013,06,05,03,23,13.40
2013,06,05,03,24,13.40
2013,06,05,03,25,13.40
2013,06,05,03,26,13.40
2013,06,05,03,27,13.40
2013,06,05,03,28,13.40
2013,06,05,03,29,13.30
2013,06,05,03,30,13.30
2013,06,05,03,31,13.30
2013,06,05,03,32,13.40
2013,06,05,03,33,13.40
2013,06,05,03,34,13.30
2013,06,05,03,35,13.30
2013,06,05,03,36,13.30
2013,06,05,03,37,13.30
2013,06,05,03,38,13.30
2013,06,05,03,39,13.30
2013,06,05,03,40,13.30
2013,06,05,03,41,13.30
2013,06,05,03,42,13.40
2013,06,05,03,43,13.30
2013,06,05,03,44,13.30
2013,06,05,03,45,13.30
2013,06,05,03,46,13.30
2013,06,05,03,47,13.30
2013,06,05,03,48,13.30
2013,06,05,03,49,13.30
2013,06,05,03,50,13.30
2013,06,05,03,51,13.30
2013,06,05,03,52,13.30
2013,06,05,03,53,13.30
2013,06,05,03,54,13.30
2013,06,05,03,55,13.30
2013,06,05,03,56,13.30
2013,06,05,03,57,13.30
2013,06,05,03,58,13.30
2013,06,05,03,59,13.30
2013,06,05,04,00,13.30
2013,06,05,04,01,13.30
2013,06,05,04,02,13.30
2013,06,05,04,03,13.30
2013,06,05,04,04,13.30
2013,06,05,04,05,13.30
2013,06,05,04,06,13.30
2013,06,05,04,07,13.30
2013,06,05,04,08,13.30
2013,06,05,04,09,13.30
2013,06,05,04,10,13.40
2013,06,05,04,11,13.30
2013,06,05,04,12,13.30
2013,06,05,04,13,13.30
2013,06,05,04,14,13.30
2013,06,05,04,15,13.30
2013,06,05,04,16,13.30
2013,06,05,04,17,13.30
2013,06,05,04,18,13.30
2013,06,05,04,19,13.30
2013,06,05,04,20,13.30
2013,06,05,04,21,13.30
2013,06,05,04,22,13.30
2013,06,05,04,23,13.30
2013,06,05,04,24,13.20
2013,06,05,04,25,13.20
2013,06,05,04,26,13.20
2013,06,05,04,27,13.20
2013,06,05,04,28,13.20
2013,06,05,04,29,13.20
2013,06,05,04,30,13.20
2013,06,05,04,31,13.20
2013,06,05,04,32,13.20
2013,06,05,04,33,13.20
2013,06,05,04,34,13.20
2013,06,05,04,35,13.20
2013,06,05,04,36,13.20
2013,06,05,04,37,13.20
2013,06,05,04,38,13.20
2013,06,05,04,39,13.20
2013,06,05,04,40,13.20
2013,06,05,04,41,13.20
2013,06,05,04,42,13.20
2013,06,05,04,43,13.20
2013,06,05,04,44,13.20
2013,06,05,04,45,13.20
2013,06,05,04,46,13.20
2013,06,05,04,47,13.20
2013,06,05,04,48,13.20
2013,06,05,04,49,13.20
2013,06,05,04,50,13.20
2013,06,05,04,51,13.20
2013,06,05,04,52,13.20
2013,06,05,04,53,13.20
2013,06,05,04,54,13.20
2013,06,05,04,55,13.20
2013,06,05,04,56,13.20
2013,06,05,04,57,13.20
2013,06,05,04,58,13.20
2013,06,05,04,59,13.20
2013,06,05,05,00,13.20
2013,06,05,05,01,13.20
2013,06,05,05,02,13.20
2013,06,05,05,03,13.20
2013,06,05,05,04,13.20
2013,06,05,05,05,13.20
2013,06,05,05,06,13.20
2013,06,05,05,07,13.20
2013,06,05,05,08,13.20
2013,06,05,05,09,13.20
2013,06,05,05,10,13.20
2013,06,05,05,11,13.20
2013,06,05,05,12,13.20
2013,06,05,05,13,13.20
2013,06,05,05,14,13.20
2013,06,05,05,15,13.20
2013,06,05,05,16,13.20
2013,06,05,05,17,13.20
2013,06,05,05,18,13.20
2013,06,05,05,19,13.30
2013,06,05,05,20,13.30
2013,06,05,05,21,13.30
2013,06,05,05,22,13.30
2013,06,05,05,23,13.30
2013,06,05,05,24,13.30
2013,06,05,05,25,13.30
2013,06,05,05,26,13.30
2013,06,05,05,27,13.30
2013,06,05,05,28,13.30
2013,06,05,05,29,13.30
2013,06,05,05,30,13.30
2013,06,05,05,31,13.30
2013,06,05,05,32,13.30
2013,06,05,05,33,13.30
2013,06,05,05,34,13.30
2013,06,05,05,35,13.30
2013,06,05,05,36,13.30
2013,06,05,05,37,13.30
2013,06,05,05,38,13.30
2013,06,05,05,39,13.30
2013,06,05,05,40,13.30
2013,06,05,05,41,13.40
2013,06,05,05,42,13.40
2013,06,05,05,43,13.40
2013,06,05,05,44,13.40
2013,06,05,05,45,13.40
2013,06,05,05,46,13.40
2013,06,05,05,47,13.40
2013,06,05,05,48,13.40
2013,06,05,05,49,13.40
2013,06,05,05,50,13.40
2013,06,05,05,51,13.40
2013,06,05,05,52,13.40
2013,06,05,05,53,13.40
2013,06,05,05,54,13.40
2013,06,05,05,55,13.40
2013,06,05,05,56,13.40
2013,06,05,05,57,13.40
2013,06,05,05,58,13.40
2013,06,05,05,59,13.40
2013,06,05,06,00,13.40
2013,06,05,06,01,13.40
2013,06,05,06,02,13.40
2013,06,05,06,03,13.40
2013,06,05,06,04,13.40
2013,06,05,06,05,13.40
2013,06,05,06,06,13.40
2013,06,05,06,07,13.40
2013,06,05,06,08,13.40
2013,06,05,06,09,13.40
2013,06,05,06,10,13.40
2013,06,05,06,11,13.50
2013,06,05,06,12,13.50
2013,06,05,06,13,13.50
2013,06,05,06,14,13.50
2013,06,05,06,15,13.50
2013,06,05,06,16,13.50
2013,06,05,06,17,13.50
2013,06,05,06,18,13.50
2013,06,05,06,19,13.50
2013,06,05,06,20,13.50
2013,06,05,06,21,13.50
2013,06,05,06,22,13.40
2013,06,05,06,23,13.40
2013,06,05,06,24,13.40
2013,06,05,06,25,13.40
2013,06,05,06,26,13.40
2013,06,05,06,27,13.40
2013,06,05,06,28,13.50
2013,06,05,06,29,13.50
2013,06,05,06,30,13.50
2013,06,05,06,31,13.40
2013,06,05,06,32,13.40
2013,06,05,06,33,13.40
2013,06,05,06,34,13.50
2013,06,05,06,35,13.50
2013,06,05,06,36,13.50
2013,06,05,06,37,13.50
2013,06,05,06,38,13.50
2013,06,05,06,39,13.50
2013,06,05,06,40,13.50
2013,06,05,06,41,13.50
2013,06,05,06,42,13.50
2013,06,05,06,43,13.50
2013,06,05,06,44,13.50
2013,06,05,06,45,13.50
2013,06,05,06,46,13.50
2013,06,05,06,47,13.50
2013,06,05,06,48,13.50
2013,06,05,06,49,13.50
2013,06,05,06,50,13.50
2013,06,05,06,51,13.50
2013,06,05,06,52,13.50
2013,06,05,06,53,13.50
2013,06,05,06,54,13.50
2013,06,05,06,55,13.50
2013,06,05,06,56,13.50
2013,06,05,06,57,13.60
2013,06,05,06,58,13.60
2013,06,05,06,59,13.60
2013,06,05,07,00,13.60
2013,06,05,07,01,13.60
2013,06,05,07,02,13.60
2013,06,05,07,03,13.60
2013,06,05,07,04,13.60
2013,06,05,07,05,13.60
2013,06,05,07,06,13.60
2013,06,05,07,07,13.70
2013,06,05,07,08,13.70
2013,06,05,07,09,13.70
2013,06,05,07,10,13.70
2013,06,05,07,11,13.70
2013,06,05,07,12,13.70
2013,06,05,07,13,13.70
2013,06,05,07,14,13.70
2013,06,05,07,15,13.70
2013,06,05,07,16,13.70
2013,06,05,07,17,13.70
2013,06,05,07,18,13.70
2013,06,05,07,19,13.70
2013,06,05,07,20,13.70
2013,06,05,07,21,13.70
2013,06,05,07,22,13.70
2013,06,05,07,23,13.70
2013,06,05,07,24,13.70
2013,06,05,07,25,13.70
2013,06,05,07,26,13.70
2013,06,05,07,27,13.70
2013,06,05,07,28,13.70
2013,06,05,07,29,13.70
2013,06,05,07,30,13.70
2013,06,05,07,31,13.70
2013,06,05,07,32,13.70
2013,06,05,07,33,13.70
2013,06,05,07,34,13.70
2013,06,05,07,35,13.70
2013,06,05,07,36,13.80
2013,06,05,07,37,13.80
2013,06,05,07,38,13.80
2013,06,05,07,39,13.80
2013,06,05,07,40,13.80
2013,06,05,07,41,13.80
2013,06,05,07,42,13.80
2013,06,05,07,43,13.90
2013,06,05,07,44,13.90
2013,06,05,07,45,13.90
2013,06,05,07,46,13.90
2013,06,05,07,47,13.90
2013,06,05,07,48,13.90
2013,06,05,07,49,13.90
2013,06,05,07,50,13.90
2013,06,05,07,51,14.00
2013,06,05,07,52,14.00
2013,06,05,07,53,14.00
2013,06,05,07,54,14.00
2013,06,05,07,55,14.00
2013,06,05,07,56,14.10
2013,06,05,07,57,14.10
2013,06,05,07,58,14.10
2013,06,05,07,59,14.10
2013,06,05,08,00,14.10
2013,06,05,08,01,14.10
2013,06,05,08,02,14.10
2013,06,05,08,03,14.10
2013,06,05,08,04,14.10
2013,06,05,08,05,14.00
2013,06,05,08,06,14.10
2013,06,05,08,07,14.10
2013,06,05,08,08,14.10
2013,06,05,08,09,14.10
2013,06,05,08,10,14.10
2013,06,05,08,11,14.10
2013,06,05,08,12,14.10
2013,06,05,08,13,14.10
2013,06,05,08,14,14.20
2013,06,05,08,15,14.20
2013,06,05,08,16,14.20
2013,06,05,08,17,14.20
2013,06,05,08,18,14.20
2013,06,05,08,19,14.30
2013,06,05,08,20,14.30
2013,06,05,08,21,14.30
2013,06,05,08,22,14.30
2013,06,05,08,23,14.30
2013,06,05,08,24,14.30
2013,06,05,08,25,14.30
2013,06,05,08,26,14.40
2013,06,05,08,27,14.30
2013,06,05,08,28,14.40
2013,06,05,08,29,14.40
2013,06,05,08,30,14.40
2013,06,05,08,31,14.40
2013,06,05,08,32,14.50
2013,06,05,08,33,14.50
2013,06,05,08,34,14.50
2013,06,05,08,35,14.60
2013,06,05,08,36,14.60
2013,06,05,08,37,14.70
2013,06,05,08,38,14.70
2013,06,05,08,39,14.70
2013,06,05,08,40,14.80
2013,06,05,08,41,14.80
2013,06,05,08,42,14.90
2013,06,05,08,43,14.90
2013,06,05,08,44,15.00
2013,06,05,08,45,15.00
2013,06,05,08,46,15.00
2013,06,05,08,47,15.00
2013,06,05,08,48,15.00
2013,06,05,08,49,15.00
2013,06,05,08,50,14.90
2013,06,05,08,51,14.90
2013,06,05,08,52,14.90
2013,06,05,08,53,14.90
2013,06,05,08,54,14.90
2013,06,05,08,55,14.90
2013,06,05,08,56,14.90
2013,06,05,08,57,14.90
2013,06,05,08,58,14.90
2013,06,05,08,59,14.90
2013,06,05,09,00,14.90
2013,06,05,09,01,14.90
2013,06,05,09,02,14.90
2013,06,05,09,03,14.90
2013,06,05,09,04,14.90
2013,06,05,09,05,14.90
2013,06,05,09,06,15.00
2013,06,05,09,07,15.10
2013,06,05,09,08,15.10
2013,06,05,09,09,15.20
2013,06,05,09,10,15.20
2013,06,05,09,11,15.20
2013,06,05,09,12,15.20
2013,06,05,09,13,15.20
2013,06,05,09,14,15.30
2013,06,05,09,15,15.30
2013,06,05,09,16,15.30
2013,06,05,09,17,15.40
2013,06,05,09,18,15.40
2013,06,05,09,19,15.40
2013,06,05,09,20,15.50
2013,06,05,09,21,15.60
2013,06,05,09,22,15.60
2013,06,05,09,23,15.70
2013,06,05,09,24,15.70
2013,06,05,09,25,15.60
2013,06,05,09,26,15.60
2013,06,05,09,27,15.60
2013,06,05,09,28,15.60
2013,06,05,09,29,15.70
2013,06,05,09,30,15.70
2013,06,05,09,31,15.70
2013,06,05,09,32,15.70
2013,06,05,09,33,15.80
2013,06,05,09,34,15.80
2013,06,05,09,35,15.80
2013,06,05,09,36,15.70
2013,06,05,09,37,15.70
2013,06,05,09,38,15.70
2013,06,05,09,39,15.60
2013,06,05,09,40,15.60
2013,06,05,09,41,15.60
2013,06,05,09,42,15.70
2013,06,05,09,43,15.70
2013,06,05,09,44,15.70
2013,06,05,09,45,15.70
2013,06,05,09,46,15.70
2013,06,05,09,47,15.80
2013,06,05,09,48,15.80
2013,06,05,09,49,15.90
2013,06,05,09,50,16.00
2013,06,05,09,51,16.00
2013,06,05,09,52,16.00
2013,06,05,09,53,16.00
2013,06,05,09,54,16.10
2013,06,05,09,55,16.10
2013,06,05,09,56,16.10
2013,06,05,09,57,16.10
2013,06,05,09,58,16.10
2013,06,05,09,59,16.10
2013,06,05,10,00,16.10
2013,06,05,10,01,16.10
2013,06,05,10,02,16.20
2013,06,05,10,03,16.20
2013,06,05,10,04,16.20
2013,06,05,10,05,16.20
2013,06,05,10,06,16.30
2013,06,05,10,07,16.30
2013,06,05,10,08,16.30
2013,06,05,10,09,16.40
2013,06,05,10,10,16.40
2013,06,05,10,11,16.50
2013,06,05,10,12,16.60
2013,06,05,10,13,16.60
2013,06,05,10,14,16.70
2013,06,05,10,15,16.70
2013,06,05,10,16,16.70
2013,06,05,10,17,16.70
2013,06,05,10,18,16.70
2013,06,05,10,19,16.70
2013,06,05,10,20,16.80
2013,06,05,10,21,16.80
2013,06,05,10,22,16.70
2013,06,05,10,23,16.70
2013,06,05,10,24,16.80
2013,06,05,10,25,16.80
2013,06,05,10,26,16.80
2013,06,05,10,27,16.80
2013,06,05,10,28,16.90
2013,06,05,10,29,16.90
2013,06,05,10,30,17.00
2013,06,05,10,31,17.10
2013,06,05,10,32,17.10
2013,06,05,10,33,17.10
2013,06,05,10,34,17.10
2013,06,05,10,35,17.10
2013,06,05,10,36,17.20
2013,06,05,10,37,17.20
2013,06,05,10,38,17.20
2013,06,05,10,39,17.20
2013,06,05,10,40,17.20
2013,06,05,10,41,17.20
2013,06,05,10,42,17.20
2013,06,05,10,43,17.20
2013,06,05,10,44,17.20
2013,06,05,10,45,17.20
2013,06,05,10,46,17.30
2013,06,05,10,47,17.30
2013,06,05,10,48,17.30
2013,06,05,10,49,17.20
2013,06,05,10,50,17.30
2013,06,05,10,51,17.30
2013,06,05,10,52,17.30
2013,06,05,10,53,17.40
2013,06,05,10,54,17.40
2013,06,05,10,55,17.40
2013,06,05,10,56,17.40
2013,06,05,10,57,17.40
2013,06,05,10,58,17.50
2013,06,05,10,59,17.60
2013,06,05,11,00,17.70
2013,06,05,11,01,17.80
2013,06,05,11,02,17.80
2013,06,05,11,03,17.80
2013,06,05,11,04,17.80
2013,06,05,11,05,17.80
2013,06,05,11,06,17.80
2013,06,05,11,07,17.80
2013,06,05,11,08,17.80
2013,06,05,11,09,17.80
2013,06,05,11,10,17.80
2013,06,05,11,11,17.80
2013,06,05,11,12,17.80
2013,06,05,11,13,17.90
2013,06,05,11,14,17.90
2013,06,05,11,15,18.00
2013,06,05,11,16,18.10
2013,06,05,11,17,18.20
2013,06,05,11,18,18.30
2013,06,05,11,19,18.30
2013,06,05,11,20,18.30
2013,06,05,11,21,18.30
2013,06,05,11,22,18.40
2013,06,05,11,23,18.50
2013,06,05,11,24,18.60
2013,06,05,11,25,18.70
2013,06,05,11,26,18.80
2013,06,05,11,27,18.80
2013,06,05,11,28,18.70
2013,06,05,11,29,18.70
2013,06,05,11,30,18.70
2013,06,05,11,31,18.80
2013,06,05,11,32,18.80
2013,06,05,11,33,18.80
2013,06,05,11,34,18.70
2013,06,05,11,35,18.70
2013,06,05,11,36,18.70
2013,06,05,11,37,18.80
2013,06,05,11,38,18.80
2013,06,05,11,39,18.90
2013,06,05,11,40,19.00
2013,06,05,11,41,19.00
2013,06,05,11,42,19.10
2013,06,05,11,43,19.10
2013,06,05,11,44,19.20
2013,06,05,11,45,19.20
2013,06,05,11,46,19.20
2013,06,05,11,47,19.20
2013,06,05,11,48,19.20
2013,06,05,11,49,19.20
2013,06,05,11,50,19.30
2013,06,05,11,51,19.30
2013,06,05,11,52,19.30
2013,06,05,11,53,19.30
2013,06,05,11,54,19.30
2013,06,05,11,55,19.30
2013,06,05,11,56,19.30
2013,06,05,11,57,19.20
2013,06,05,11,58,19.10
2013,06,05,11,59,19.10
2013,06,05,12,00,19.10
2013,06,05,12,01,19.20
2013,06,05,12,02,19.30
2013,06,05,12,03,19.40
2013,06,05,12,04,19.40
2013,06,05,12,05,19.40
2013,06,05,12,06,19.40
2013,06,05,12,07,19.40
2013,06,05,12,08,19.40
2013,06,05,12,09,19.50
2013,06,05,12,10,19.60
2013,06,05,12,11,19.60
2013,06,05,12,12,19.70
2013,06,05,12,13,19.80
2013,06,05,12,14,19.80
2013,06,05,12,15,19.90
2013,06,05,12,16,20.00
2013,06,05,12,17,20.00
2013,06,05,12,18,20.10
2013,06,05,12,19,20.00
2013,06,05,12,20,20.00
2013,06,05,12,21,19.90
2013,06,05,12,22,19.80
2013,06,05,12,23,19.80
2013,06,05,12,24,19.80
2013,06,05,12,25,19.80
2013,06,05,12,26,19.90
2013,06,05,12,27,19.90
2013,06,05,12,28,20.00
2013,06,05,12,29,20.00
2013,06,05,12,30,20.10
2013,06,05,12,31,20.20
2013,06,05,12,32,20.10
2013,06,05,12,33,20.00
2013,06,05,12,34,19.90
2013,06,05,12,35,19.90
2013,06,05,12,36,19.90
2013,06,05,12,37,19.90
2013,06,05,12,38,20.00
2013,06,05,12,39,20.00
2013,06,05,12,40,19.90
2013,06,05,12,41,19.90
2013,06,05,12,42,19.80
2013,06,05,12,43,19.80
2013,06,05,12,44,19.80
2013,06,05,12,45,19.90
2013,06,05,12,46,19.90
2013,06,05,12,47,19.90
2013,06,05,12,48,19.90
2013,06,05,12,49,20.00
2013,06,05,12,50,20.00
2013,06,05,12,51,20.10
2013,06,05,12,52,20.10
2013,06,05,12,53,20.10
2013,06,05,12,54,20.10
2013,06,05,12,55,20.10
2013,06,05,12,56,20.20
2013,06,05,12,57,20.20
2013,06,05,12,58,20.30
2013,06,05,12,59,20.30
2013,06,05,13,00,20.30
2013,06,05,13,01,20.30
2013,06,05,13,02,20.30
2013,06,05,13,03,20.40
2013,06,05,13,04,20.40
2013,06,05,13,05,20.40
2013,06,05,13,06,20.40
2013,06,05,13,07,20.40
2013,06,05,13,08,20.30
2013,06,05,13,09,20.30
2013,06,05,13,10,20.40
2013,06,05,13,11,20.40
2013,06,05,13,12,20.30
2013,06,05,13,13,20.30
2013,06,05,13,14,20.40
2013,06,05,13,15,20.50
2013,06,05,13,16,20.50
2013,06,05,13,17,20.50
2013,06,05,13,18,20.50
2013,06,05,13,19,20.60
2013,06,05,13,20,20.60
2013,06,05,13,21,20.60
2013,06,05,13,22,20.70
2013,06,05,13,23,20.70
2013,06,05,13,24,20.70
2013,06,05,13,25,20.80
2013,06,05,13,26,20.80
2013,06,05,13,27,20.90
2013,06,05,13,28,20.90
2013,06,05,13,29,21.00
2013,06,05,13,30,21.00
2013,06,05,13,31,21.00
2013,06,05,13,32,21.00
2013,06,05,13,33,21.00
2013,06,05,13,34,21.10
2013,06,05,13,35,21.20
2013,06,05,13,36,21.20
2013,06,05,13,37,21.30
2013,06,05,13,38,21.20
2013,06,05,13,39,21.20
2013,06,05,13,40,21.20
2013,06,05,13,41,21.10
2013,06,05,13,42,21.10
2013,06,05,13,43,21.20
2013,06,05,13,44,21.30
2013,06,05,13,45,21.30
2013,06,05,13,46,21.40
2013,06,05,13,47,21.40
2013,06,05,13,48,21.50
2013,06,05,13,49,21.50
2013,06,05,13,50,21.40
2013,06,05,13,51,21.40
2013,06,05,13,52,21.40
2013,06,05,13,53,21.40
2013,06,05,13,54,21.30
2013,06,05,13,55,21.40
2013,06,05,13,56,21.40
2013,06,05,13,57,21.50
2013,06,05,13,58,21.60
2013,06,05,13,59,21.50
2013,06,05,14,00,21.50
2013,06,05,14,01,21.50
2013,06,05,14,02,21.40
2013,06,05,14,03,21.40
2013,06,05,14,04,21.40
2013,06,05,14,05,21.50
2013,06,05,14,06,21.50
2013,06,05,14,07,21.50
2013,06,05,14,08,21.50
2013,06,05,14,09,21.50
2013,06,05,14,10,21.50
2013,06,05,14,11,21.70
2013,06,05,14,12,21.70
2013,06,05,14,13,21.80
2013,06,05,14,14,21.80
2013,06,05,14,15,21.90
2013,06,05,14,16,21.90
2013,06,05,14,17,21.90
2013,06,05,14,18,22.00
2013,06,05,14,19,22.10
2013,06,05,14,20,22.20
2013,06,05,14,21,22.20
2013,06,05,14,22,22.20
2013,06,05,14,23,22.10
2013,06,05,14,24,22.00
2013,06,05,14,25,22.00
2013,06,05,14,26,22.00
2013,06,05,14,27,22.00
2013,06,05,14,28,22.00
2013,06,05,14,29,22.00
2013,06,05,14,30,22.00
2013,06,05,14,31,22.00
2013,06,05,14,32,22.10
2013,06,05,14,33,22.10
2013,06,05,14,34,22.10
2013,06,05,14,35,22.20
2013,06,05,14,36,22.30
2013,06,05,14,37,22.30
2013,06,05,14,38,22.40
2013,06,05,14,39,22.50
2013,06,05,14,40,22.50
2013,06,05,14,41,22.60
2013,06,05,14,42,22.60
2013,06,05,14,43,22.70
2013,06,05,14,44,22.70
2013,06,05,14,45,22.70
2013,06,05,14,46,22.70
2013,06,05,14,47,22.60
2013,06,05,14,48,22.60
2013,06,05,14,49,22.50
2013,06,05,14,50,22.40
2013,06,05,14,51,22.40
2013,06,05,14,52,22.40
2013,06,05,14,53,22.40
2013,06,05,14,54,22.40
2013,06,05,14,55,22.40
2013,06,05,14,56,22.50
2013,06,05,14,57,22.50
2013,06,05,14,58,22.50
2013,06,05,14,59,22.40
2013,06,05,15,00,22.40
2013,06,05,15,01,22.40
2013,06,05,15,02,22.40
2013,06,05,15,03,22.40
2013,06,05,15,04,22.40
2013,06,05,15,05,22.40
2013,06,05,15,06,22.40
2013,06,05,15,07,22.50
2013,06,05,15,08,22.60
2013,06,05,15,09,22.70
2013,06,05,15,10,22.80
2013,06,05,15,11,22.80
2013,06,05,15,12,22.90
2013,06,05,15,13,22.90
2013,06,05,15,14,23.00
2013,06,05,15,15,23.00
2013,06,05,15,16,23.00
2013,06,05,15,17,23.00
2013,06,05,15,18,23.10
2013,06,05,15,19,23.10
2013,06,05,15,20,23.10
2013,06,05,15,21,23.10
2013,06,05,15,22,23.10
2013,06,05,15,23,23.10
2013,06,05,15,24,23.10
2013,06,05,15,25,23.10
2013,06,05,15,26,23.10
2013,06,05,15,27,23.10
2013,06,05,15,28,23.00
2013,06,05,15,29,23.00
2013,06,05,15,30,23.00
2013,06,05,15,31,22.90
2013,06,05,15,32,22.90
2013,06,05,15,33,22.90
2013,06,05,15,34,22.90
2013,06,05,15,35,23.00
2013,06,05,15,36,23.10
2013,06,05,15,37,23.10
2013,06,05,15,38,23.10
2013,06,05,15,39,23.00
2013,06,05,15,40,23.00
2013,06,05,15,41,23.00
2013,06,05,15,42,23.10
2013,06,05,15,43,23.00
2013,06,05,15,44,23.00
2013,06,05,15,45,23.00
2013,06,05,15,46,23.00
2013,06,05,15,47,23.00
2013,06,05,15,48,23.00
2013,06,05,15,49,23.00
2013,06,05,15,50,23.00
2013,06,05,15,51,23.00
2013,06,05,15,52,23.10
2013,06,05,15,53,23.10
2013,06,05,15,54,23.10
2013,06,05,15,55,23.20
2013,06,05,15,56,23.20
2013,06,05,15,57,23.30
2013,06,05,15,58,23.30
2013,06,05,15,59,23.30
2013,06,05,16,00,23.30
2013,06,05,16,01,23.40
2013,06,05,16,02,23.50
2013,06,05,16,03,23.50
2013,06,05,16,04,23.50
2013,06,05,16,05,23.60
2013,06,05,16,06,23.60
2013,06,05,16,07,23.70
2013,06,05,16,08,23.70
2013,06,05,16,09,23.70
2013,06,05,16,10,23.60
2013,06,05,16,11,23.60
2013,06,05,16,12,23.60
2013,06,05,16,13,23.60
2013,06,05,16,14,23.60
2013,06,05,16,15,23.60
2013,06,05,16,16,23.50
2013,06,05,16,17,23.50
2013,06,05,16,18,23.50
2013,06,05,16,19,23.50
2013,06,05,16,20,23.60
2013,06,05,16,21,23.60
2013,06,05,16,22,23.60
2013,06,05,16,23,23.60
2013,06,05,16,24,23.60
2013,06,05,16,25,23.50
2013,06,05,16,26,23.50
2013,06,05,16,27,23.40
2013,06,05,16,28,23.40
2013,06,05,16,29,23.40
2013,06,05,16,30,23.30
2013,06,05,16,31,23.40
2013,06,05,16,32,23.40
2013,06,05,16,33,23.50
2013,06,05,16,34,23.50
2013,06,05,16,35,23.60
2013,06,05,16,36,23.60
2013,06,05,16,37,23.60
2013,06,05,16,38,23.70
2013,06,05,16,39,23.70
2013,06,05,16,40,23.80
2013,06,05,16,41,23.80
2013,06,05,16,42,23.80
2013,06,05,16,43,23.80
2013,06,05,16,44,23.80
2013,06,05,16,45,23.90
2013,06,05,16,46,23.90
2013,06,05,16,47,23.80
2013,06,05,16,48,23.80
2013,06,05,16,49,23.70
2013,06,05,16,50,23.60
2013,06,05,16,51,23.50
2013,06,05,16,52,23.40
2013,06,05,16,53,23.40
2013,06,05,16,54,23.50
2013,06,05,16,55,23.50
2013,06,05,16,56,23.60
2013,06,05,16,57,23.60
2013,06,05,16,58,23.60
2013,06,05,16,59,23.60
2013,06,05,17,00,23.50
2013,06,05,17,01,23.50
2013,06,05,17,02,23.50
2013,06,05,17,03,23.60
2013,06,05,17,04,23.60
2013,06,05,17,05,23.50
2013,06,05,17,06,23.50
2013,06,05,17,07,23.50
2013,06,05,17,08,23.60
2013,06,05,17,09,23.60
2013,06,05,17,10,23.50
2013,06,05,17,11,23.50
2013,06,05,17,12,23.40
2013,06,05,17,13,23.30
2013,06,05,17,14,23.40
2013,06,05,17,15,23.40
2013,06,05,17,16,23.40
2013,06,05,17,17,23.30
2013,06,05,17,18,23.30
2013,06,05,17,19,23.30